DB0TGO-13 Weather Reports


time (UTC)temp
F
wind
direction
speed
knots
gust
knots
rain 1hr
in
rain 24hr
in
rain mn
in
humidity
%
barometer
mb
20260509194502 55 100 2.6 0.0 0.00 0.00 0.00 61 1013.1
20260509193002 55 110 2.6 0.0 0.00 0.00 0.00 61 1013.1
20260509191502 57 110 2.6 0.0 0.00 0.00 0.00 58 1013.0
20260509190003 57 120 1.7 0.0 0.00 0.00 0.00 58 1013.0
20260509184502 58 120 2.6 0.0 0.00 0.00 0.00 57 1013.1
20260509183002 58 120 2.6 0.0 0.00 0.00 0.00 57 1013.1
20260509181502 59 110 5.2 0.0 0.00 0.00 0.00 55 1013.1
20260509180002 59 110 5.2 0.0 0.00 0.00 0.00 55 1013.1
20260509174502 59 110 5.2 0.0 0.00 0.00 0.00 52 1013.3
20260509173002 59 110 6.1 0.0 0.00 0.00 0.00 52 1013.3
20260509171502 60 110 6.1 0.0 0.00 0.00 0.00 51 1013.6
20260509170002 60 100 5.2 0.0 0.00 0.00 0.00 51 1013.6
20260509164503 62 100 5.2 0.0 0.00 0.00 0.00 49 1013.9
20260509163002 62 60 3.5 0.0 0.00 0.00 0.00 49 1013.9
20260509161502 61 100 1.7 0.0 0.00 0.00 0.00 49 1014.2
20260509160003 61 100 1.7 0.0 0.00 0.00 0.00 49 1014.2
20260509154502 60 100 1.7 0.0 0.00 0.00 0.00 49 1014.3
20260509153002 60 90 3.5 0.0 0.00 0.00 0.00 49 1014.3
20260509151503 60 90 3.5 0.0 0.00 0.00 0.00 49 1014.4
20260509150002 60 90 1.7 0.0 0.00 0.00 0.00 49 1014.4
20260509144502 59 90 1.7 0.0 0.00 0.00 0.00 55 1014.6
20260509143002 59 70 2.6 0.0 0.00 0.00 0.00 55 1014.6
20260509141502 60 70 2.6 0.0 0.00 0.00 0.00 49 1014.8
20260509140002 60 60 2.6 0.0 0.00 0.00 0.00 49 1014.8
20260509134502 61 190 4.3 0.0 0.00 0.00 0.00 43 1015.1
20260509133003 61 190 4.3 0.0 0.00 0.00 0.00 43 1015.1
20260509131502 59 70 1.7 0.0 0.00 0.00 0.00 49 1015.3
20260509130002 59 70 1.7 0.0 0.00 0.00 0.00 49 1015.3
20260509124502 59 70 1.7 0.0 0.00 0.00 0.00 52 1015.4
20260509123002 59 40 3.5 0.0 0.00 0.00 0.00 52 1015.4
20260509121502 59 40 3.5 0.0 0.00 0.00 0.00 49 1015.5
20260509120002 59 40 1.7 0.0 0.00 0.00 0.00 49 1015.5
20260509114502 58 60 2.6 0.0 0.00 0.00 0.00 49 1015.7
20260509113003 58 60 2.6 0.0 0.00 0.00 0.00 49 1015.7
20260509111502 60 60 2.6 0.0 0.00 0.00 0.00 48 1015.8
20260509110002 60 280 2.6 0.0 0.00 0.00 0.00 48 1015.8
20260509104502 59 280 2.6 0.0 0.00 0.00 0.00 53 1015.9
20260509103002 59 280 2.6 0.0 0.00 0.00 0.00 53 1015.9
20260509101502 57 280 2.6 0.0 0.00 0.00 0.00 52 1016.1
20260509100002 57 40 2.6 0.0 0.00 0.00 0.00 52 1016.1
20260509094502 56 40 2.6 0.0 0.00 0.00 0.00 59 1016.1
20260509093002 56 30 2.6 0.0 0.00 0.00 0.00 59 1016.1
20260509091503 55 40 2.6 0.0 0.00 0.00 0.00 66 1016.2
20260509090002 55 40 2.6 0.0 0.00 0.00 0.00 66 1016.2
20260509084502 54 30 2.6 0.0 0.00 0.00 0.00 65 1016.1
20260509083002 54 30 2.6 0.0 0.00 0.00 0.00 65 1016.1
20260509081502 52 30 2.6 0.0 0.00 0.00 0.00 69 1016.1
20260509080002 52 80 2.6 0.0 0.00 0.00 0.00 69 1016.1
20260509074502 51 80 2.6 0.0 0.00 0.00 0.00 73 1016.0
20260509073002 51 50 2.6 0.0 0.00 0.00 0.00 73 1016.0
20260509071502 51 50 2.6 0.0 0.00 0.00 0.00 71 1015.9
20260509070002 51 350 0.9 0.0 0.00 0.00 0.00 71 1015.9
20260509064502 50 350 0.9 0.0 0.00 0.00 0.00 74 1015.9
20260509063002 50 50 0.9 0.0 0.00 0.00 0.00 74 1015.9
20260509061502 49 30 0.0 0.0 0.00 0.00 0.00 78 1015.8
20260509060002 49 30 0.0 0.0 0.00 0.00 0.00 78 1015.8
20260509054502 49 30 0.0 0.0 0.00 0.00 0.00 77 1015.7
20260509053002 49 270 0.9 0.0 0.00 0.00 0.00 77 1015.7
20260509051502 48 60 1.7 0.0 0.00 0.00 0.00 81 1015.4
20260509050002 48 60 1.7 0.0 0.00 0.00 0.00 81 1015.4
20260509044502 48 60 1.7 0.0 0.00 0.00 0.00 79 1015.5
20260509043002 48 90 2.6 0.0 0.00 0.00 0.00 79 1015.5
20260509041502 47 80 1.7 0.0 0.00 0.00 0.00 78 1015.5
20260509040002 47 80 1.7 0.0 0.00 0.00 0.00 78 1015.5
20260509034502 47 70 1.7 0.0 0.00 0.00 0.00 77 1015.6
20260509033002 47 70 1.7 0.0 0.00 0.00 0.00 77 1015.6
20260509031502 48 50 1.7 0.0 0.00 0.00 0.00 74 1015.5
20260509030004 48 50 1.7 0.0 0.00 0.00 0.00 74 1015.5
20260508204502 53 80 3.5 0.0 0.00 0.00 0.00 68 1015.5
20260508203003 53 80 0.9 0.0 0.00 0.00 0.00 68 1015.5
20260508201502 52 90 2.6 0.0 0.00 0.00 0.00 72 1015.4
20260508200002 52 90 2.6 0.0 0.00 0.00 0.00 72 1015.4